2018-094B (43711 NORAD) Tracking and Keplerian Element Data

This shows tracking and keplerian element data for the satellite.

Feedback or suggestion? Click here.




ElementValue
Catalog43711
Name2018-094B
Epoch Orbit303
Epoch Day343.88490659
Epoch Year2018
RAAN348.5029
Inclination97.4073
Eccentricity0.0011682
Argument of Perigee189.3164
Mean Anonmoly255.431
Mean Motion15.23181881
Decay Rate3.43E-06
L11 43711U 18094B 18343.88490659 .00000343 00000-0 17480-4 0 9990
L22 43711 97.4073 348.5029 0011682 189.3164 255.4310 15.23181881 3033

Live tracking and technical data element details for 2018-094B (NORAD 43711). 2018-094B can be tracked NOW for your location showing map with azimuth and elevation plus other details from your city location.

Track the satellite on the map from your city or location and see movement details for azimuth, elevation, latitude, longitude, range, height, and movement on the map or in text.







IsCatalogInMostPopularTable: catalog: 43711, numindb: 11
Update: records affected: 1



GetName: 43711 2018-094B

Hit Count: updated at: Tue, 11 Dec 2018 03:00:44 GMT